カタログに戻る

STARLINK-37364

運用中通信SSO
NORAD 68783·PAYLOAD·🇺🇸 United States

打ち上げ Apr 19, 2026 から Vandenberg Space Force Base

Loading…

次のパス (今後24時間)

TLE

最新Source: CelesTrak SupGP

元期: Sep 14, 2026, 22:51 UTC

1 68783C 26086T   26257.95256944  .00040884  00000+0  12692-2 0  2572
2 68783  97.2842 293.5054 0001224 109.8348  38.4916 15.33416466    17

AllMySatでSTARLINK-37364をリアルタイム追跡

Download on the App Store